TimeEDT,TemperatureF,Dew PointF,Humidity,Sea Level PressureIn,VisibilityMPH,Wind Direction,Wind SpeedMPH,Gust SpeedMPH,PrecipitationIn,Events,Conditions,WindDirDegrees,DateUTC
12:53 AM,73.0,68.0,84,29.94,10.0,ESE,3.5,-,N/A,,Overcast,120,2012-09-04 04:53:00
1:53 AM,73.0,68.0,84,29.92,10.0,Calm,Calm,-,N/A,,Overcast,0,2012-09-04 05:53:00
2:31 AM,73.4,69.8,88,29.93,10.0,Calm,Calm,-,N/A,,Overcast,0,2012-09-04 06:31:00
2:53 AM,72.0,69.1,91,29.90,10.0,SE,3.5,-,N/A,,Overcast,130,2012-09-04 06:53:00
3:53 AM,73.0,68.0,84,29.90,10.0,SSE,4.6,-,N/A,,Overcast,150,2012-09-04 07:53:00
4:39 AM,71.6,68.0,88,29.91,10.0,Calm,Calm,-,N/A,,Overcast,0,2012-09-04 08:39:00
4:53 AM,72.0,69.1,91,29.89,10.0,Calm,Calm,-,N/A,,Overcast,0,2012-09-04 08:53:00
5:53 AM,71.1,69.1,93,29.90,9.0,Calm,Calm,-,N/A,,Overcast,0,2012-09-04 09:53:00
6:03 AM,71.6,69.8,94,29.92,9.0,Calm,Calm,-,N/A,,Overcast,0,2012-09-04 10:03:00
6:53 AM,72.0,70.0,93,29.92,9.0,Calm,Calm,-,N/A,,Overcast,0,2012-09-04 10:53:00
7:35 AM,71.6,69.8,94,29.94,1.8,Calm,Calm,-,0.05,Rain,Rain,0,2012-09-04 11:35:00
7:53 AM,72.0,70.0,93,29.92,2.5,SSE,3.5,-,0.07,Rain,Light Rain,150,2012-09-04 11:53:00
8:00 AM,71.6,69.8,94,29.94,3.0,SE,3.5,-,0.01,Rain,Light Rain,130,2012-09-04 12:00:00
8:53 AM,73.0,71.1,93,29.91,5.0,Calm,Calm,-,0.01,,Overcast,0,2012-09-04 12:53:00
9:53 AM,73.9,71.1,91,29.90,8.0,South,3.5,-,N/A,,Overcast,180,2012-09-04 13:53:00
10:48 AM,75.2,71.6,89,29.92,10.0,South,3.5,-,N/A,,Overcast,170,2012-09-04 14:48:00
10:53 AM,75.9,71.1,85,29.90,10.0,South,5.8,-,N/A,,Overcast,190,2012-09-04 14:53:00
11:53 AM,77.0,71.1,82,29.90,10.0,Variable,3.5,-,N/A,,Overcast,0,2012-09-04 15:53:00
12:53 PM,79.0,71.1,77,29.88,10.0,SSW,5.8,-,0.00,,Overcast,200,2012-09-04 16:53:00
1:48 PM,80.6,71.6,74,29.89,10.0,SSW,4.6,-,N/A,,Overcast,210,2012-09-04 17:48:00
1:53 PM,81.0,71.1,72,29.86,10.0,SSW,4.6,-,N/A,,Overcast,210,2012-09-04 17:53:00
2:07 PM,78.8,71.6,78,29.89,1.8,Variable,5.8,-,0.07,Rain,Heavy Rain,0,2012-09-04 18:07:00
2:19 PM,75.2,71.6,89,29.89,2.5,Calm,Calm,-,0.12,Rain,Light Rain,0,2012-09-04 18:19:00
2:27 PM,77.0,73.4,89,29.88,10.0,Calm,Calm,-,0.12,,Overcast,0,2012-09-04 18:27:00
2:53 PM,79.0,73.9,84,29.85,10.0,Calm,Calm,-,0.12,,Mostly Cloudy,0,2012-09-04 18:53:00
3:15 PM,78.8,73.4,83,29.87,10.0,Calm,Calm,-,N/A,Thunderstorm,Thunderstorm,0,2012-09-04 19:15:00
3:45 PM,77.0,73.4,89,29.86,1.8,SW,4.6,-,0.04,Rain,Rain,220,2012-09-04 19:45:00
3:49 PM,75.2,73.4,94,29.86,1.0,SSW,5.8,-,0.08,Rain-Thunderstorm,Heavy Rain,210,2012-09-04 19:49:00
3:53 PM,75.0,73.0,94,29.84,0.5,Calm,Calm,-,0.17,Fog-Rain-Thunderstorm,Heavy Rain,0,2012-09-04 19:53:00
4:03 PM,75.2,73.4,94,29.85,1.0,Calm,Calm,-,0.04,Rain-Thunderstorm,Light Rain,0,2012-09-04 20:03:00
4:05 PM,75.2,73.4,94,29.85,2.5,Calm,Calm,-,0.04,Rain-Thunderstorm,Light Rain,0,2012-09-04 20:05:00
4:12 PM,75.2,73.4,94,29.86,7.0,Calm,Calm,-,0.04,Rain-Thunderstorm,Light Thunderstorms and Rain,0,2012-09-04 20:12:00
4:24 PM,73.4,73.4,100,29.87,1.5,West,8.1,-,0.10,Rain-Thunderstorm,Thunderstorms and Rain,260,2012-09-04 20:24:00
4:28 PM,73.4,71.6,94,29.87,0.8,WSW,9.2,16.1,0.17,Rain-Thunderstorm,Heavy Thunderstorms and Rain,250,2012-09-04 20:28:00
4:36 PM,73.4,71.6,94,29.87,0.8,West,5.8,-,0.25,Rain,Heavy Rain,270,2012-09-04 20:36:00
4:43 PM,73.4,71.6,94,29.87,1.0,WSW,4.6,-,0.30,Rain,Heavy Rain,250,2012-09-04 20:43:00
4:48 PM,73.4,71.6,94,29.86,1.2,Calm,Calm,-,0.32,Rain-Thunderstorm,Heavy Thunderstorms and Rain,0,2012-09-04 20:48:00
4:53 PM,73.9,72.0,93,29.84,2.0,South,3.5,-,0.32,Rain-Thunderstorm,Light Thunderstorms and Rain,180,2012-09-04 20:53:00
4:59 PM,73.4,71.6,94,29.85,9.0,Calm,Calm,-,0.00,Rain,Light Rain,0,2012-09-04 20:59:00
5:53 PM,77.0,72.0,84,29.84,10.0,Variable,3.5,-,0.01,,Overcast,0,2012-09-04 21:53:00
6:17 PM,75.2,71.6,89,29.85,10.0,WSW,4.6,-,N/A,Thunderstorm,Overcast,240,2012-09-04 22:17:00
6:53 PM,73.0,69.1,87,29.84,5.0,West,5.8,-,0.02,Rain,Rain,280,2012-09-04 22:53:00
7:40 PM,71.6,71.6,100,29.87,10.0,Calm,Calm,-,0.01,,Mostly Cloudy,0,2012-09-04 23:40:00
7:53 PM,73.0,71.1,93,29.85,10.0,Calm,Calm,-,0.01,,Overcast,0,2012-09-04 23:53:00
8:07 PM,71.6,69.8,94,29.86,10.0,Calm,Calm,-,N/A,,Scattered Clouds,0,2012-09-05 00:07:00
8:31 PM,71.6,69.8,94,29.87,9.0,Calm,Calm,-,N/A,,Mostly Cloudy,0,2012-09-05 00:31:00
8:53 PM,73.0,71.1,93,29.86,10.0,Calm,Calm,-,N/A,,Overcast,0,2012-09-05 00:53:00
9:02 PM,71.6,71.6,100,29.87,10.0,Calm,Calm,-,N/A,,Overcast,0,2012-09-05 01:02:00
9:53 PM,72.0,70.0,93,29.86,10.0,Calm,Calm,-,N/A,,Scattered Clouds,0,2012-09-05 01:53:00
10:10 PM,71.6,69.8,94,29.87,7.0,Calm,Calm,-,N/A,,Mostly Cloudy,0,2012-09-05 02:10:00
10:14 PM,69.8,69.8,100,29.87,1.5,Calm,Calm,-,N/A,,Mostly Cloudy,0,2012-09-05 02:14:00
10:17 PM,69.8,69.8,100,29.87,0.8,Calm,Calm,-,N/A,,Mostly Cloudy,0,2012-09-05 02:17:00
10:28 PM,69.8,69.8,100,29.87,1.5,Calm,Calm,-,N/A,,Overcast,0,2012-09-05 02:28:00
10:32 PM,69.8,69.8,100,29.87,3.0,Calm,Calm,-,N/A,,Overcast,0,2012-09-05 02:32:00
10:39 PM,71.6,69.8,94,29.87,6.0,Calm,Calm,-,N/A,,Overcast,0,2012-09-05 02:39:00
10:53 PM,71.1,70.0,96,29.85,5.0,Calm,Calm,-,N/A,,Overcast,0,2012-09-05 02:53:00
11:08 PM,71.6,69.8,94,29.87,6.0,Calm,Calm,-,N/A,,Overcast,0,2012-09-05 03:08:00
11:23 PM,69.8,69.8,100,29.87,1.8,Calm,Calm,-,N/A,,Mostly Cloudy,0,2012-09-05 03:23:00
11:31 PM,69.8,69.8,100,29.87,1.0,Calm,Calm,-,N/A,,Overcast,0,2012-09-05 03:31:00
11:34 PM,69.8,69.8,100,29.87,0.8,Calm,Calm,-,N/A,,Overcast,0,2012-09-05 03:34:00
11:41 PM,69.8,69.8,100,29.87,0.5,Calm,Calm,-,N/A,Fog,Fog,0,2012-09-05 03:41:00
11:53 PM,70.0,69.1,97,29.86,0.5,Calm,Calm,-,N/A,Fog,Fog,0,2012-09-05 03:53:00